This is the latest recevied weather packets stored in our database for station/object JF2ZGN-13. If no packets are shown the sender has not sent any weather packets the latest 10 day(s).
| Time | Temp. | Humidity | Pressure | Rain* | Wind** | Luminosity | Snow |
|---|---|---|---|---|---|---|---|
| 1777725217 | 13.89° C | 37% | 906.4 hPa | 0 mm | - | - | - |
| 1777724017 | 14.44° C | 45% | 906.2 hPa | 0 mm | - | - | - |
| 1777723416 | 14.44° C | 45% | 906.1 hPa | 0 mm | - | - | - |
| 1777722815 | 14.44° C | 45% | 906 hPa | 0 mm | - | - | - |
| 1777722216 | 14.44° C | 45% | 906 hPa | 0 mm | - | - | - |
| 1777721615 | 13.89° C | 43% | 905.8 hPa | 0 mm | - | - | - |
| 1777721014 | 13.89° C | 43% | 905.8 hPa | 0 mm | - | - | - |
| 1777720413 | 14.44° C | 44% | 905.8 hPa | 0 mm | - | - | - |
| 1777719813 | 14.44° C | 41% | 905.7 hPa | 0 mm | - | - | - |
| 1777719212 | 15° C | 45% | 905.4 hPa | 0 mm | - | - | - |
| 1777718612 | 15° C | 41% | 905.2 hPa | 0 mm | - | - | - |
| 1777718011 | 15° C | 34% | 905.5 hPa | 0 mm | - | - | - |
| 1777717411 | 15° C | 35% | 905.3 hPa | 0 mm | - | - | - |
| 1777716810 | 15.56° C | 38% | 905.2 hPa | 0 mm | - | - | - |
| 1777716210 | 15.56° C | 33% | 905.1 hPa | 0 mm | - | - | - |
| 1777715610 | 15° C | 30% | 905 hPa | 0 mm | - | - | - |
| 1777715009 | 15.56° C | 35% | 904.9 hPa | 0 mm | - | - | - |
| 1777714409 | 15.56° C | 38% | 904.9 hPa | 0 mm | - | - | - |
| 1777713808 | 15.56° C | 37% | 904.8 hPa | 0 mm | - | - | - |
| 1777713209 | 15.56° C | 35% | 904.7 hPa | 0 mm | - | - | - |
| 1777712607 | 15.56° C | 35% | 904.7 hPa | 0 mm | - | - | - |
| 1777712010 | 15.56° C | 35% | 904.6 hPa | 0 mm | - | - | - |
| 1777711406 | 15.56° C | 34% | 904.6 hPa | 0 mm | - | - | - |
| 1777710807 | 15.56° C | 34% | 904.5 hPa | 0 mm | - | - | - |
| 1777710206 | 15° C | 33% | 904.5 hPa | 0 mm | - | - | - |
* Rain since midnight (hover to see other rain measurements)
** Current wind speed in m/s (hover to see current wind gust speed)